Time,TemperatureF,DewpointF,PressureIn,WindDirection,WindDirectionDegrees,WindSpeedMPH,WindSpeedGustMPH,Humidity,HourlyPrecipIn,Conditions,Clouds,dailyrainin,SoftwareType,DateUTC
2013-02-18 00:01:00,27.0,21.0,27.53,NW,305,13.0,21.0,79,0.00,,,0.01,,2013-02-18 07:01:00,
2013-02-18 00:11:00,27.0,21.0,27.53,NW,305,13.0,21.0,79,0.00,,,0.01,,2013-02-18 07:11:00,
2013-02-18 00:22:00,27.0,21.0,27.54,WNW,282,18.0,26.0,77,0.00,,,0.01,,2013-02-18 07:22:00,
2013-02-18 00:32:00,26.0,20.0,27.55,WNW,296,18.0,23.0,77,0.00,,,0.01,,2013-02-18 07:32:00,
2013-02-18 00:42:00,26.0,20.0,27.55,WNW,296,18.0,23.0,77,0.00,,,0.01,,2013-02-18 07:42:00,
2013-02-18 00:51:00,26.0,20.0,27.55,West,268,11.0,20.0,78,0.00,,,0.01,,2013-02-18 07:51:00,
2013-02-18 01:01:00,26.0,20.0,27.55,WNW,302,9.0,16.0,79,0.00,,,0.01,,2013-02-18 08:01:00,
2013-02-18 01:11:00,26.0,20.0,27.55,WNW,302,9.0,16.0,79,0.00,,,0.01,,2013-02-18 08:11:00,
2013-02-18 01:21:00,25.0,19.0,27.56,WNW,296,13.0,24.0,77,0.00,,,0.01,,2013-02-18 08:21:00,
2013-02-18 01:32:00,25.0,19.0,27.56,WNW,285,7.0,11.0,78,0.00,,,0.01,,2013-02-18 08:32:00,
2013-02-18 01:42:00,25.0,19.0,27.56,WNW,285,7.0,11.0,78,0.00,,,0.01,,2013-02-18 08:42:00,
2013-02-18 01:52:00,25.0,19.0,27.57,WNW,298,10.0,16.0,78,0.00,,,0.01,,2013-02-18 08:52:00,
2013-02-18 02:02:00,25.0,19.0,27.57,WNW,298,7.0,11.0,78,0.00,,,0.01,,2013-02-18 09:02:00,
2013-02-18 02:11:00,25.0,19.0,27.57,WNW,298,7.0,11.0,78,0.00,,,0.01,,2013-02-18 09:11:00,
2013-02-18 02:22:00,25.0,19.0,27.57,WNW,291,6.0,11.0,79,0.00,,,0.01,,2013-02-18 09:22:00,
2013-02-18 02:32:00,25.0,19.0,27.57,WNW,287,6.0,10.0,79,0.00,,,0.01,,2013-02-18 09:32:00,
2013-02-18 02:42:00,25.0,19.0,27.57,WNW,287,6.0,10.0,79,0.00,,,0.01,,2013-02-18 09:42:00,
2013-02-18 02:51:00,25.0,19.0,27.58,WNW,303,2.0,7.0,79,0.00,,,0.01,,2013-02-18 09:51:00,
2013-02-18 03:01:00,25.0,19.0,27.58,NW,316,8.0,12.0,78,0.00,,,0.01,,2013-02-18 10:01:00,
2013-02-18 03:11:00,25.0,19.0,27.58,NW,316,8.0,12.0,78,0.00,,,0.01,,2013-02-18 10:11:00,
2013-02-18 03:21:00,24.0,18.0,27.58,NW,315,7.0,11.0,78,0.00,,,0.01,,2013-02-18 10:21:00,
2013-02-18 03:31:00,24.0,18.0,27.59,NW,316,8.0,18.0,76,0.00,,,0.01,,2013-02-18 10:31:00,
2013-02-18 03:42:00,24.0,18.0,27.59,NW,316,8.0,18.0,76,0.00,,,0.01,,2013-02-18 10:42:00,
2013-02-18 03:52:00,23.0,17.0,27.60,NW,317,8.0,15.0,76,0.00,,,0.01,,2013-02-18 10:52:00,
2013-02-18 04:01:00,23.0,17.0,27.60,NW,324,5.0,11.0,77,0.00,,,0.01,,2013-02-18 11:01:00,
2013-02-18 04:11:00,23.0,17.0,27.60,NW,324,5.0,11.0,77,0.00,,,0.01,,2013-02-18 11:11:00,
2013-02-18 04:22:00,23.0,17.0,27.60,WNW,297,4.0,10.0,78,0.00,,,0.01,,2013-02-18 11:22:00,
2013-02-18 04:32:00,23.0,17.0,27.60,WNW,287,7.0,10.0,78,0.00,,,0.01,,2013-02-18 11:32:00,
2013-02-18 04:42:00,23.0,17.0,27.60,WNW,287,7.0,10.0,78,0.00,,,0.01,,2013-02-18 11:42:00,
2013-02-18 04:52:00,23.0,17.0,27.60,WNW,287,7.0,10.0,78,0.00,,,0.01,,2013-02-18 11:52:00,
2013-02-18 05:02:00,23.0,17.0,27.61,WNW,288,6.0,12.0,77,0.00,,,0.01,,2013-02-18 12:02:00,
2013-02-18 05:11:00,23.0,17.0,27.61,WNW,288,6.0,12.0,77,0.00,,,0.01,,2013-02-18 12:11:00,
2013-02-18 05:22:00,23.0,17.0,27.61,NW,308,1.0,9.0,77,0.00,,,0.01,,2013-02-18 12:22:00,
2013-02-18 05:32:00,22.0,15.0,27.61,NW,325,8.0,11.0,75,0.00,,,0.01,,2013-02-18 12:32:00,
2013-02-18 05:42:00,22.0,15.0,27.61,NW,325,8.0,11.0,75,0.00,,,0.01,,2013-02-18 12:42:00,
2013-02-18 05:52:00,22.0,16.0,27.63,NW,315,6.0,10.0,77,0.00,,,0.01,,2013-02-18 12:52:00,
2013-02-18 06:03:00,22.0,16.0,27.63,NW,310,4.0,9.0,78,0.00,,,0.01,,2013-02-18 13:03:00,
2013-02-18 06:12:00,22.0,16.0,27.63,NW,310,4.0,9.0,78,0.00,,,0.01,,2013-02-18 13:12:00,
2013-02-18 06:22:00,22.0,16.0,27.63,NW,313,5.0,10.0,79,0.00,,,0.01,,2013-02-18 13:22:00,
2013-02-18 06:32:00,21.0,15.0,27.64,NW,319,8.0,12.0,78,0.00,,,0.01,,2013-02-18 13:32:00,
2013-02-18 06:42:00,21.0,15.0,27.64,NW,319,8.0,12.0,78,0.00,,,0.01,,2013-02-18 13:42:00,
2013-02-18 06:53:00,21.0,16.0,27.64,NW,315,4.0,9.0,79,0.00,,,0.01,,2013-02-18 13:53:00,
2013-02-18 07:02:00,21.0,16.0,27.64,NW,319,4.0,9.0,80,0.00,,,0.01,,2013-02-18 14:02:00,
2013-02-18 07:11:00,21.0,16.0,27.64,NW,319,4.0,9.0,80,0.00,,,0.01,,2013-02-18 14:11:00,
2013-02-18 07:22:00,21.0,16.0,27.65,NW,317,4.0,9.0,81,0.00,,,0.01,,2013-02-18 14:22:00,
2013-02-18 07:33:00,21.0,16.0,27.66,NNW,336,5.0,10.0,80,0.00,,,0.01,,2013-02-18 14:33:00,
2013-02-18 07:42:00,21.0,16.0,27.66,NNW,336,5.0,10.0,80,0.00,,,0.01,,2013-02-18 14:42:00,
2013-02-18 07:53:00,20.0,14.0,27.66,NW,319,8.0,12.0,77,0.00,,,0.01,,2013-02-18 14:53:00,
2013-02-18 08:02:00,20.0,14.0,27.67,NW,306,7.0,11.0,78,0.00,,,0.01,,2013-02-18 15:02:00,
2013-02-18 08:11:00,20.0,14.0,27.67,NW,306,7.0,11.0,78,0.00,,,0.01,,2013-02-18 15:11:00,
2013-02-18 08:22:00,20.0,14.0,27.67,NNW,330,5.0,10.0,78,0.00,,,0.01,,2013-02-18 15:22:00,
2013-02-18 08:32:00,20.0,14.0,27.67,NW,319,4.0,10.0,78,0.00,,,0.01,,2013-02-18 15:32:00,
2013-02-18 08:42:00,20.0,14.0,27.67,NW,319,4.0,10.0,78,0.00,,,0.01,,2013-02-18 15:42:00,
2013-02-18 08:52:00,21.0,15.0,27.68,NW,322,6.0,11.0,78,0.00,,,0.01,,2013-02-18 15:52:00,
2013-02-18 09:03:00,21.0,14.0,27.68,NW,323,10.0,16.0,74,0.00,,,0.01,,2013-02-18 16:03:00,
2013-02-18 09:12:00,21.0,14.0,27.68,NW,323,10.0,16.0,74,0.00,,,0.01,,2013-02-18 16:12:00,
2013-02-18 09:22:00,21.0,14.0,27.69,NNW,327,8.0,14.0,73,0.00,,,0.01,,2013-02-18 16:22:00,
2013-02-18 09:32:00,21.0,13.0,27.70,NNW,333,10.0,14.0,72,0.00,,,0.01,,2013-02-18 16:32:00,
2013-02-18 09:42:00,21.0,13.0,27.70,NNW,333,10.0,14.0,72,0.00,,,0.01,,2013-02-18 16:42:00,
2013-02-18 09:52:00,21.0,13.0,27.70,NNW,333,10.0,18.0,71,0.00,,,0.01,,2013-02-18 16:52:00,
2013-02-18 10:03:00,22.0,14.0,27.70,NNW,329,12.0,18.0,70,0.00,,,0.01,,2013-02-18 17:03:00,
2013-02-18 10:12:00,22.0,14.0,27.70,NNW,329,12.0,18.0,70,0.00,,,0.01,,2013-02-18 17:12:00,
2013-02-18 10:22:00,22.0,13.0,27.71,NNW,343,10.0,18.0,69,0.00,,,0.01,,2013-02-18 17:22:00,
2013-02-18 10:32:00,22.0,15.0,27.71,NW,317,7.0,12.0,73,0.00,,,0.01,,2013-02-18 17:32:00,
2013-02-18 10:42:00,22.0,15.0,27.71,NW,317,7.0,12.0,73,0.00,,,0.01,,2013-02-18 17:42:00,
2013-02-18 10:52:00,22.0,14.0,27.71,NNW,336,9.0,15.0,70,0.00,,,0.01,,2013-02-18 17:52:00,
2013-02-18 11:02:00,22.0,14.0,27.71,NW,323,8.0,12.0,71,0.00,,,0.01,,2013-02-18 18:02:00,
2013-02-18 11:12:00,22.0,14.0,27.71,NW,323,8.0,12.0,71,0.00,,,0.01,,2013-02-18 18:12:00,
2013-02-18 11:22:00,22.0,14.0,27.71,NNW,344,9.0,12.0,70,0.00,,,0.01,,2013-02-18 18:22:00,
2013-02-18 11:32:00,22.0,13.0,27.72,WNW,291,7.0,12.0,69,0.00,,,0.01,,2013-02-18 18:32:00,
2013-02-18 11:42:00,22.0,13.0,27.72,WNW,291,7.0,12.0,69,0.00,,,0.01,,2013-02-18 18:42:00,
2013-02-18 11:52:00,22.0,14.0,27.72,NNW,337,8.0,12.0,70,0.00,,,0.01,,2013-02-18 18:52:00,
2013-02-18 12:12:00,23.0,15.0,27.72,WNW,286,8.0,13.0,71,0.00,,,0.01,,2013-02-18 19:12:00,
2013-02-18 12:22:00,23.0,15.0,27.72,WNW,288,11.0,15.0,71,0.00,,,0.01,,2013-02-18 19:22:00,
2013-02-18 12:33:00,23.0,15.0,27.72,WNW,288,10.0,15.0,70,0.00,,,0.01,,2013-02-18 19:33:00,
2013-02-18 12:42:00,23.0,15.0,27.72,WNW,288,10.0,15.0,70,0.00,,,0.01,,2013-02-18 19:42:00,
2013-02-18 12:52:00,23.0,15.0,27.72,NW,315,8.0,15.0,70,0.00,,,0.01,,2013-02-18 19:52:00,
2013-02-18 13:02:00,23.0,15.0,27.72,WNW,294,8.0,13.0,71,0.00,,,0.01,,2013-02-18 20:02:00,
2013-02-18 13:12:00,23.0,15.0,27.72,WNW,294,8.0,13.0,71,0.00,,,0.01,,2013-02-18 20:12:00,
2013-02-18 13:23:00,24.0,15.0,27.72,NW,306,7.0,14.0,69,0.00,,,0.01,,2013-02-18 20:23:00,
2013-02-18 13:33:00,24.0,16.0,27.72,NW,309,10.0,13.0,70,0.00,,,0.01,,2013-02-18 20:33:00,
2013-02-18 13:42:00,24.0,16.0,27.72,NW,309,10.0,13.0,70,0.00,,,0.01,,2013-02-18 20:42:00,
2013-02-18 13:52:00,24.0,15.0,27.72,WNW,294,9.0,14.0,68,0.00,,,0.01,,2013-02-18 20:52:00,
2013-02-18 14:03:00,24.0,15.0,27.72,WNW,302,7.0,13.0,67,0.00,,,0.01,,2013-02-18 21:03:00,
2013-02-18 14:12:00,24.0,15.0,27.72,WNW,302,7.0,13.0,67,0.00,,,0.01,,2013-02-18 21:12:00,
2013-02-18 14:22:00,24.0,15.0,27.72,WNW,301,9.0,14.0,68,0.00,,,0.01,,2013-02-18 21:22:00,
2013-02-18 14:32:00,24.0,15.0,27.72,WNW,298,7.0,13.0,67,0.00,,,0.01,,2013-02-18 21:32:00,
2013-02-18 14:42:00,24.0,15.0,27.72,WNW,298,7.0,13.0,67,0.00,,,0.01,,2013-02-18 21:42:00,
2013-02-18 14:52:00,24.0,14.0,27.72,WNW,288,7.0,11.0,65,0.00,,,0.01,,2013-02-18 21:52:00,
2013-02-18 15:02:00,24.0,14.0,27.72,WNW,299,11.0,18.0,65,0.00,,,0.01,,2013-02-18 22:02:00,
2013-02-18 15:12:00,25.0,15.0,27.72,WNW,297,7.0,14.0,64,0.00,,,0.01,,2013-02-18 22:12:00,
2013-02-18 15:22:00,25.0,15.0,27.72,WNW,297,7.0,14.0,64,0.00,,,0.01,,2013-02-18 22:22:00,
2013-02-18 15:33:00,25.0,14.0,27.72,NNW,327,7.0,12.0,63,0.00,,,0.01,,2013-02-18 22:33:00,
2013-02-18 15:43:00,25.0,14.0,27.72,NNW,327,7.0,12.0,63,0.00,,,0.01,,2013-02-18 22:43:00,
2013-02-18 15:52:00,25.0,15.0,27.72,NNW,328,7.0,11.0,64,0.00,,,0.01,,2013-02-18 22:52:00,
2013-02-18 16:02:00,25.0,14.0,27.72,WNW,294,9.0,14.0,63,0.00,,,0.01,,2013-02-18 23:02:00,
2013-02-18 16:12:00,25.0,14.0,27.72,WNW,294,9.0,14.0,63,0.00,,,0.01,,2013-02-18 23:12:00,
2013-02-18 16:22:00,25.0,14.0,27.72,NW,326,5.0,10.0,63,0.00,,,0.01,,2013-02-18 23:22:00,
2013-02-18 16:33:00,25.0,15.0,27.72,West,279,7.0,10.0,64,0.00,,,0.01,,2013-02-18 23:33:00,
2013-02-18 16:42:00,25.0,15.0,27.72,West,279,7.0,10.0,64,0.00,,,0.01,,2013-02-18 23:42:00,
2013-02-18 16:52:00,24.0,14.0,27.72,NNW,328,5.0,10.0,64,0.00,,,0.01,,2013-02-18 23:52:00,
2013-02-18 17:03:00,24.0,15.0,27.72,North,9,4.0,8.0,67,0.00,,,0.01,,2013-02-19 00:03:00,
2013-02-18 17:12:00,24.0,15.0,27.72,North,9,4.0,8.0,67,0.00,,,0.01,,2013-02-19 00:12:00,
2013-02-18 17:22:00,24.0,15.0,27.72,NNW,336,5.0,9.0,68,0.00,,,0.01,,2013-02-19 00:22:00,
2013-02-18 17:34:00,23.0,15.0,27.73,NE,36,4.0,8.0,71,0.00,,,0.00,,2013-02-19 00:34:00,
2013-02-18 17:43:00,23.0,15.0,27.73,NE,36,4.0,8.0,71,0.00,,,0.00,,2013-02-19 00:43:00,
2013-02-18 17:53:00,23.0,15.0,27.73,NNE,14,0.0,5.0,72,0.00,,,0.00,,2013-02-19 00:53:00,
2013-02-18 18:03:00,22.0,14.0,27.73,NNE,19,0.0,4.0,72,0.00,,,0.00,,2013-02-19 01:03:00,
2013-02-18 18:14:00,22.0,14.0,27.73,NNE,19,0.0,4.0,72,0.00,,,0.00,,2013-02-19 01:14:00,
2013-02-18 18:24:00,22.0,15.0,27.73,NNE,19,1.0,4.0,74,0.00,,,0.00,,2013-02-19 01:24:00,
2013-02-18 18:34:00,20.0,14.0,27.73,NNE,28,5.0,7.0,76,0.00,,,0.00,,2013-02-19 01:34:00,
2013-02-18 18:43:00,20.0,14.0,27.73,NNE,28,5.0,7.0,76,0.00,,,0.00,,2013-02-19 01:43:00,
2013-02-18 18:54:00,19.0,13.0,27.73,NNE,31,4.0,6.0,78,0.00,,,0.00,,2013-02-19 01:54:00,
2013-02-18 19:03:00,19.0,14.0,27.73,NNE,29,4.0,7.0,79,0.00,,,0.00,,2013-02-19 02:03:00,
2013-02-18 19:13:00,19.0,14.0,27.73,NNE,29,4.0,7.0,79,0.00,,,0.00,,2013-02-19 02:13:00,
2013-02-18 19:23:00,19.0,14.0,27.74,NNE,22,4.0,7.0,81,0.00,,,0.00,,2013-02-19 02:23:00,
2013-02-18 19:34:00,18.0,13.0,27.74,NNE,14,5.0,7.0,81,0.00,,,0.00,,2013-02-19 02:34:00,
2013-02-18 19:42:00,18.0,13.0,27.74,NNE,14,5.0,7.0,81,0.00,,,0.00,,2013-02-19 02:42:00,
2013-02-18 19:53:00,17.0,12.0,27.75,NNE,24,5.0,10.0,81,0.00,,,0.00,,2013-02-19 02:53:00,
2013-02-18 20:06:00,16.0,11.0,27.75,NNE,26,7.0,10.0,81,0.00,,,0.00,,2013-02-19 03:06:00,
2013-02-18 20:23:00,15.0,11.0,27.75,NNE,24,6.0,9.0,82,0.00,,,0.00,,2013-02-19 03:23:00,
2013-02-18 20:34:00,15.0,11.0,27.75,NNE,18,7.0,10.0,82,0.00,,,0.00,,2013-02-19 03:34:00,
2013-02-18 20:44:00,15.0,11.0,27.75,NNE,18,7.0,10.0,82,0.00,,,0.00,,2013-02-19 03:44:00,
2013-02-18 20:53:00,14.0,10.0,27.76,NE,39,5.0,8.0,83,0.00,,,0.00,,2013-02-19 03:53:00,
2013-02-18 21:02:00,14.0,10.0,27.76,NNE,23,6.0,12.0,82,0.00,,,0.00,,2013-02-19 04:02:00,
2013-02-18 21:14:00,14.0,10.0,27.76,NNE,23,6.0,12.0,82,0.00,,,0.00,,2013-02-19 04:14:00,
2013-02-18 21:23:00,13.0,9.0,27.76,NE,42,3.0,8.0,82,0.00,,,0.00,,2013-02-19 04:23:00,
2013-02-18 21:33:00,13.0,9.0,27.76,NE,39,7.0,12.0,83,0.00,,,0.00,,2013-02-19 04:33:00,
2013-02-18 21:43:00,13.0,9.0,27.76,NE,39,7.0,12.0,83,0.00,,,0.00,,2013-02-19 04:43:00,
2013-02-18 21:53:00,12.0,8.0,27.77,NNE,23,4.0,9.0,82,0.00,,,0.00,,2013-02-19 04:53:00,
2013-02-18 22:02:00,11.0,7.0,27.78,NNE,21,5.0,9.0,83,0.00,,,0.00,,2013-02-19 05:02:00,
2013-02-18 22:12:00,11.0,7.0,27.78,NNE,21,5.0,9.0,83,0.00,,,0.00,,2013-02-19 05:12:00,
2013-02-18 22:22:00,11.0,7.0,27.78,NNE,21,5.0,9.0,83,0.00,,,0.00,,2013-02-19 05:22:00,
2013-02-18 22:32:00,10.0,6.0,27.79,North,5,6.0,10.0,84,0.00,,,0.00,,2013-02-19 05:32:00,
2013-02-18 22:43:00,10.0,6.0,27.79,North,5,6.0,10.0,84,0.00,,,0.00,,2013-02-19 05:43:00,
2013-02-18 22:52:00,10.0,6.0,27.79,NNE,15,6.0,10.0,84,0.00,,,0.00,,2013-02-19 05:52:00,
2013-02-18 23:02:00,9.0,5.0,27.79,NNE,25,5.0,10.0,84,0.00,,,0.00,,2013-02-19 06:02:00,
2013-02-18 23:11:00,9.0,5.0,27.79,NNE,25,5.0,10.0,84,0.00,,,0.00,,2013-02-19 06:11:00,
2013-02-18 23:21:00,9.0,5.0,27.79,NNE,25,5.0,10.0,84,0.00,,,0.00,,2013-02-19 06:21:00,
2013-02-18 23:32:00,9.0,5.0,27.79,NNE,24,3.0,6.0,84,0.00,,,0.00,,2013-02-19 06:32:00,
2013-02-18 23:42:00,9.0,5.0,27.79,NNE,24,3.0,6.0,84,0.00,,,0.00,,2013-02-19 06:42:00,
2013-02-18 23:52:00,9.0,5.0,27.79,NNE,28,5.0,7.0,84,0.00,,,0.00,,2013-02-19 06:52:00,